Regional Weather Roundup
Issued by NWS

Home | Current Version | Previous Version | Text Only | Print | Product List | Glossary Off
Versions: 1 2 3 4 5 6 7 8 9 10 11 12 13 14 15 16 17 18 19 20 21 22 23 24 25 26 27 28 29 30 31 32 33 34 35 36 37 38 39 40 41 42 43 44 45 46 47 48 49 50

000
ASUS43 KOAX 220802
RWRNE

WEATHER ROUNDUP FOR NEBRASKA
NATIONAL WEATHER SERVICE OMAHA NE
300 AM CDT SUN APR 22 2018

NOTES: SATELLITE DATA IS BEING USED TO AUGMENT CLOUD COVER ABOVE
       12000 FEET.
       "FAIR" INDICATES FEW OR NO CLOUDS BELOW 12,000 FEET WITH NO
       SIGNIFICANT WEATHER AND/OR OBSTRUCTIONS TO VISIBILITY.


NEZ001>004-019>022-054>056-220900-
NEBRASKA PANHANDLE

CITY           SKY/WX    TMP DP  RH WIND       PRES   REMARKS
SCOTTSBLUFF    PTCLDY    33  33 100 E8        30.16F FOG     WCI  26
ALLIANCE       CLOUDY    36  36 100 S10       30.17F WCI  28
CHADRON        CLEAR     36  34  92 S7        30.15F WCI  30
GORDON         FAIR      33  32  96 S3        30.17F
KIMBALL        CLOUDY    37  37 100 S12       30.16F FOG     WCI  29
SIDNEY         MOCLDY    34  33  96 S8        30.18F WCI  27
$$

NEZ057>060-069>072-079>082-220900-
SOUTHWEST NEBRASKA

CITY           SKY/WX    TMP DP  RH WIND       PRES   REMARKS
NORTH PLATTE   CLOUDY    40  37  89 SE5       30.22F
IMPERIAL       CLOUDY    39  39 100 CALM      30.20F
LEXINGTON      CLOUDY    41  38  89 CALM      30.23F
MCCOOK         CLOUDY    41  40  96 CALM      30.23S FOG
OGALLALA       CLOUDY    37  37  97 E3        30.21F FOG
$$

NEZ005>010-023>029-035>040-094-220900-
NORTH CENTRAL NEBRASKA

CITY           SKY/WX    TMP DP  RH WIND       PRES   REMARKS
VALENTINE      PTCLDY    41  37  86 S12       30.21F
AINSWORTH      CLOUDY    39  38  93 S5        30.23F
BROKEN BOW     CLOUDY    40  37  89 CALM      30.22F
O`NEILL        CLOUDY    43  38  83 CALM      30.25F
ORD            CLOUDY    40  38  93 N3        30.23F
THEDFORD       CLOUDY    38  37  93 SE3       30.23F
$$

NEZ041-046>049-061>064-073>077-083>087-220900-
SOUTH CENTRAL NEBRASKA

CITY           SKY/WX    TMP DP  RH WIND       PRES   REMARKS
GRAND ISLAND   CLOUDY    38  37  97 NW6       30.21F FOG     WCI  33
AURORA         PTCLDY    38  37  98 N8        30.21S FOG     WCI  32
HASTINGS       CLOUDY    39  39 100 NW7       30.21F WCI  34
HEBRON         CLOUDY    43  40  90 N7        30.18F
HOLDREGE       CLOUDY    39  39 100 CALM      30.21F FOG
KEARNEY        CLOUDY    40  38  93 CALM      30.22F
YORK             N/A     39  39 100 N6        30.21F WCI  35
$$

NEZ011>018-030>034-042>045-220900-
NORTHEAST NEBRASKA

CITY           SKY/WX    TMP DP  RH WIND       PRES   REMARKS
NORFOLK        MOCLDY    37  33  85 CALM      30.22F
ALBION         CLOUDY    39  37  90 NW6       30.24F WCI  35
BLAIR          MOCLDY    46  30  52 NE10      30.21F
COLUMBUS       MOCLDY    35  31  85 NW5       30.23F WCI  31
FREMONT        CLOUDY    44  31  62 CALM      30.22F
TEKAMAH        PTCLDY    39  29  67 N9        30.24F WCI  33
WAYNE          CLOUDY    37  36  96 CALM      30.24F
$$

NEZ050>053-065>068-078-088>093-220900-
SOUTHEAST NEBRASKA

CITY           SKY/WX    TMP DP  RH WIND       PRES   REMARKS
LINCOLN        CLOUDY    42  34  73 N6        30.21F
OMAHA EPPLEY   CLOUDY    50  29  44 E10G21    30.21F
BEATRICE       CLOUDY    43  39  85 N3        30.18S
FALLS CITY     CLOUDY    49  31  49 NE6       30.15F
NEBRASKA CITY  CLOUDY    48  31  50 NE6       30.19S
PLATTSMOUTH    CLOUDY    48  31  50 NE6       30.21R
$$

NEZ044-045-051>053-067-220900-
OMAHA AREA

CITY           SKY/WX    TMP DP  RH WIND       PRES   REMARKS
OMAHA EPPLEY   CLOUDY    50  29  44 E10G21    30.21F
BLAIR          MOCLDY    46  30  52 NE10      30.21F
FREMONT        CLOUDY    44  31  62 CALM      30.22F
MILLARD        MOCLDY    50  31  47 CALM      30.22S
PLATTSMOUTH    CLOUDY    48  31  50 NE6       30.21R
WAHOO          FAIR      41  30  66 N7        30.21F
$$




USA.gov is the U.S. government's official web portal to all federal, state and local government web resources and services.